Location: Recife
(8.0585°S, 34.8848°W)
Time: 10:05:06
(UTC-03:00)

Transit 2A Rocket - Pass Details

Date: 15 April 2026
Orbit: 587 x 895 km, 66.7° (Epoch: 14 May)

Event Time Altitude Azimuth Distance (km) Brightness Sun altitude
Rises 23:20:38 0° 195° (SSW) 3,419 - -87.9°
Reaches altitude 10° 23:23:05 10° 192° (SSW) 2,511 - -87.8°
Maximum altitude 23:28:56 67° 110° (ESE) 962 - -86.9°
Drops below altitude 10° 23:34:52 10° 28° (NNE) 2,553 - -85.7°
Sets 23:37:23 0° 26° (NNE) 3,480 - -85.1°
